METAR AND TAF INFORMATION
METAR FOR ESSA
ADDS - METARS form results

(0519 UTC 27 November 2021)
Data provider http://aviationweather.gov/metar/data/
 
METAR text: ESSA 270450Z 04007KT CAVOK M05/M07 Q1001 NOSIG
Conditions at: ESSA (STOCKHOLM/ARLAND, SE) observed 0450 UTC 27 November 2021
Temperature: -5.0°C (23°F)
Dewpoint: -7.0°C (19°F) [RH = 86%]
Pressure (altimeter): 29.56 inches Hg (1001.0 mb)
Winds: from the NE (40 degrees) at 8 MPH (7 knots; 3.6 m/s)
Visibility: 6 or more miles (10+ km)
Ceiling: ceiling and visibility are OK
Clouds: unknown
Weather: no significant weather observed at this time

METAR text: ESSA 270420Z 02008KT CAVOK M06/M07 Q1001 NOSIG
Conditions at: ESSA (STOCKHOLM/ARLAND, SE) observed 0420 UTC 27 November 2021
Temperature: -6.0°C (21°F)
Dewpoint: -7.0°C (19°F) [RH = 93%]
Pressure (altimeter): 29.56 inches Hg (1001.0 mb)
Winds: from the NNE (20 degrees) at 9 MPH (8 knots; 4.1 m/s)
Visibility: 6 or more miles (10+ km)
Ceiling: ceiling and visibility are OK
Clouds: unknown
Weather: no significant weather observed at this time

Forecast for: ESSA (STOCKHOLM/ARLAND, SE)
Text: TAF ESSA 262330Z 2700/2724 02007KT CAVOK
Forecast period: 0000 UTC 27 November 2021 to 0000 UTC 28 November 2021
Forecast type: FROM: standard forecast or significant change
Winds: from the NNE (20 degrees) at 8 MPH (7 knots; 3.6 m/s)
Visibility: 6 or more miles (10+ km)
Ceiling: unknown
Clouds: missing
Weather: NSW  (no significant weather)

 AIRPORT MAP

 RUNWAY INFORMATION
Runway 01R Runway length 8201 ft Runway width 148 ft
Runway elevation 137 ft Runway displaced threshold 0 ft Runway heading 10
Runway 19L Runway length 8201 ft Runway width 148 ft
Runway elevation 98 ft Runway displaced threshold 0 ft Runway heading 190
Runway 01L Runway length 10830 ft Runway width 148 ft
Runway elevation 98 ft Runway displaced threshold 0 ft Runway heading 10
Runway 19R Runway length 10830 ft Runway width 148 ft
Runway elevation 118 ft Runway displaced threshold 0 ft Runway heading 190
Runway 08 Runway length 8202 ft Runway width 148 ft
Runway elevation 108 ft Runway displaced threshold 0 ft Runway heading 76
Runway 26 Runway length 8202 ft Runway width 148 ft
Runway elevation 124 ft Runway displaced threshold 0 ft Runway heading 256

 AIRPORT FREQUENCIES
Type APP Name STOCKHOLM Frequency 123.75 MHZ
Type ATIS Name ATIS Frequency 119 MHZ
Type CLD Name CLNC DEL Frequency 121.825 MHZ
Type GND Name GND Frequency 121.7 MHZ
Type PMSV Name MET OFFICE Frequency 122.6 MHZ
Type TWR Name TWR Frequency 118.5 MHZ

 AIRPORT NEAR NAVIGATION AIDS
Type VOR-DME Name Arlanda Frequency 116000 KHZ
Type NDB Name Arlanda Frequency 352 KHZ
Type NDB Name Arlanda Frequency 360 KHZ
Type NDB Name Arlanda Frequency 404 KHZ
Type NDB Name Arlanda Frequency 370 KHZ





Powered by Virtual Airlines Manager

Maps by Rafael Santos